Weather History for Hartford, CT

Change the Weather History Date:

Wednesday, January 8, 2014

  Actual Average Record
Temperature  
Mean Temperature 14 °F -  
Max Temperature 21 °F 35 °F 82 °F (2008)
Min Temperature 7 °F 18 °F -6 °F (1942)
Degree Days  
Heating Degree Days 51    
Moisture  
Dew Point -2 °F    
Average Humidity 48    
Maximum Humidity 60    
Minimum Humidity 37    
Precipitation  
Precipitation 0.00 in - - ()
Sea Level Pressure  
Sea Level Pressure 30.45 in    
Wind  
Wind Speed 6 mph (SW)    
Max Wind Speed 10 mph    
Max Gust Speed -    
Visibility 10 miles    
Events      
Averages and records for this station are not official NWS values.
T = Trace of Precipitation, MM = Missing Value Source: NWS Daily Summary

Daily Weather History Graph

Daily Weather History Graph

Search for Another Location

Airport:

Trip Planner

Search our weather history database for the weather conditions in past years. The results will help you decide how hot, cold, wet, or windy it might be!

Date:

Astronomy

Jan. 08, 2014 Rise Set
Actual Time 7:17 AM EST 4:37 PM EST
Civil Twilight 6:46 AM EST 5:08 PM EST
Nautical Twilight 6:11 AM EST 5:43 PM EST
Astronomical Twilight 5:38 AM EST 6:16 PM EST
Moon 11:31 AM EST (1/8) 12:16 AM EST (1/8)
Length of Visible Light 10h 22m
Length of Day
9h 19m
First Quarter, 56% of the Moon is Illuminated
Jan 8
First Quarter
Jan 15
Full
Jan 24
Last Quarter
Jan 30
New
Feb 6
First Quarter

Hourly Weather History & Observations

Time (EST) Temp. Windchill Dew Point Humidity Pressure Visibility Wind Dir Wind Speed Gust Speed Precip Events Conditions
12:53 AM 8.1 °F -6.2 °F -8.0 °F 48% 30.33 in 10.0 mi WSW 10.4 mph - N/A   Clear
1:53 AM 9.0 °F -0.9 °F -8.0 °F 46% 30.36 in 10.0 mi WSW 5.8 mph - N/A   Clear
2:53 AM 8.1 °F -2.0 °F -7.1 °F 50% 30.39 in 10.0 mi South 5.8 mph - N/A   Clear
3:53 AM 8.1 °F 1.4 °F -7.1 °F 50% 30.40 in 10.0 mi Variable 3.5 mph - N/A   Clear
4:53 AM 8.1 °F -3.2 °F -6.0 °F 53% 30.41 in 10.0 mi WSW 6.9 mph - N/A   Clear
5:53 AM 7.0 °F 0.1 °F -5.1 °F 58% 30.43 in 10.0 mi SSW 3.5 mph - N/A   Clear
6:53 AM 7.0 °F 0.1 °F -5.1 °F 58% 30.44 in 10.0 mi Variable 3.5 mph - N/A   Clear
7:53 AM 8.1 °F 1.4 °F -5.1 °F 55% 30.48 in 10.0 mi WSW 3.5 mph - N/A   Clear
8:53 AM 10.0 °F 1.8 °F -5.1 °F 51% 30.51 in 10.0 mi SW 4.6 mph - N/A   Clear
9:53 AM 12.9 °F 3.8 °F -2.9 °F 49% 30.53 in 10.0 mi Variable 5.8 mph - N/A   Clear
10:53 AM 15.1 °F 7.7 °F -2.9 °F 45% 30.50 in 10.0 mi Variable 4.6 mph - N/A   Clear
11:53 AM 18.0 °F 11.1 °F -2.0 °F 41% 30.47 in 10.0 mi Variable 4.6 mph - N/A   Clear
12:53 PM 19.0 °F 13.9 °F -2.0 °F 40% 30.44 in 10.0 mi Variable 3.5 mph - N/A   Clear
1:53 PM 19.9 °F 14.9 °F -2.0 °F 38% 30.43 in 10.0 mi Variable 3.5 mph - N/A   Clear
2:53 PM 21.9 °F 13.4 °F -0.9 °F 37% 30.43 in 10.0 mi SW 6.9 mph - N/A   Clear
3:53 PM 21.9 °F 14.5 °F -0.9 °F 37% 30.43 in 10.0 mi Variable 5.8 mph - N/A   Clear
4:53 PM 21.9 °F 15.7 °F -0.0 °F 38% 30.45 in 10.0 mi West 4.6 mph - N/A   Clear
5:53 PM 19.9 °F 10.1 °F -0.0 °F 42% 30.47 in 10.0 mi WSW 8.1 mph - N/A   Clear
6:53 PM 19.9 °F - -0.0 °F 42% 30.48 in 10.0 mi Calm Calm - N/A   Clear
7:53 PM 19.0 °F - 1.0 °F 46% 30.49 in 10.0 mi Calm Calm - N/A   Partly Cloudy
8:53 PM 19.0 °F 13.9 °F 5.0 °F 54% 30.48 in 10.0 mi SE 3.5 mph - N/A   Overcast
9:53 PM 19.0 °F 11.1 °F 3.9 °F 52% 30.49 in 10.0 mi SSE 5.8 mph - N/A   Overcast
10:53 PM 18.0 °F 12.7 °F 6.1 °F 60% 30.48 in 10.0 mi South 3.5 mph - N/A   Scattered Clouds
11:53 PM 19.0 °F - 5.0 °F 54% 30.48 in 10.0 mi Calm Calm - N/A   Mostly Cloudy